QPF
0.00 0.00 0.01 0.01 0.00 0.01 0.02 0.02 0.02 0.04 0.05 0.07 0.07 0.07 0.08 0.08 0.06 0.05 0.05 0.05 0.04 0.05 0.07 0.07 0.07 0.07 0.09 0.11 0.11 0.13 0.12 0.08 0.07 0.09 0.10 0.08 0.08 0.06 0.05 0.06 0.07 0.07 0.08
0.00 0.00 0.00 0.01 0.00 0.01 0.03 0.03 0.03 0.03 0.03 0.05 0.05 0.06 0.07 0.06 0.07 0.07 0.08 0.04 0.03 0.04 0.05 0.07 0.06 0.06 0.08 0.09 0.09 0.09 0.09 0.07 0.08 0.11 0.12 0.13 0.11 0.09 0.07 0.07 0.06 0.06 0.08
0.00 0.00 0.00 0.00 0.00 0.01 0.02 0.03 0.03 0.03 0.04 0.05 0.05 0.05 0.05 0.06 0.09 0.12 0.11 0.08 0.07 0.05 0.06 0.07 0.05 0.05 0.06 0.08 0.07 0.06 0.08 0.08 0.08 0.09 0.11 0.13 0.13 0.13 0.10 0.08 0.06 0.05 0.06
0.00 0.00 0.00 0.01 0.01 0.00 0.01 0.02 0.03 0.04 0.04 0.03 0.04 0.06 0.05 0.05 0.06 0.09 0.09 0.08 0.09 0.09 0.08 0.06 0.05 0.05 0.05 0.08 0.06 0.06 0.07 0.08 0.08 0.07 0.08 0.09 0.12 0.12 0.12 0.09 0.06 0.04 0.04
0.00 0.00 0.00 0.01 0.01 0.00 0.00 0.01 0.02 0.03 0.03 0.03 0.03 0.05 0.05 0.04 0.04 0.06 0.08 0.08 0.10 0.08 0.07 0.06 0.05 0.05 0.06 0.08 0.07 0.07 0.06 0.05 0.07 0.08 0.08 0.10 0.12 0.10 0.10 0.10 0.09 0.06 0.04
0.00 0.00 0.00 0.00 0.00 0.00 0.01 0.00 0.02 0.02 0.03 0.04 0.04 0.04 0.04 0.04 0.05 0.07 0.08 0.10 0.09 0.08 0.07 0.07 0.06 0.05 0.06 0.08 0.09 0.07 0.05 0.05 0.07 0.08 0.08 0.08 0.08 0.08 0.08 0.08 0.08 0.07 0.05
0.00 0.00 0.01 0.01 0.01 0.01 0.01 0.01 0.02 0.02 0.02 0.04 0.04 0.04 0.04 0.03 0.03 0.04 0.06 0.09 0.07 0.07 0.08 0.07 0.05 0.05 0.06 0.05 0.07 0.08 0.07 0.07 0.07 0.07 0.07 0.07 0.06 0.06 0.05 0.06 0.07 0.06 0.04
0.00 0.00 0.01 0.01 0.02 0.03 0.04 0.04 0.04 0.03 0.03 0.04 0.04 0.04 0.04 0.02 0.02 0.04 0.04 0.05 0.05 0.06 0.07 0.07 0.05 0.04 0.04 0.06 0.08 0.08 0.09 0.09 0.07 0.06 0.06 0.06 0.05 0.04 0.03 0.04 0.06 0.06 0.05
0.00 0.00 0.01 0.01 0.02 0.02 0.05 0.08 0.07 0.06 0.05 0.05 0.05 0.04 0.03 0.04 0.04 0.03 0.03 0.03 0.04 0.05 0.06 0.06 0.06 0.06 0.07 0.07 0.07 0.06 0.07 0.09 0.07 0.06 0.06 0.05 0.03 0.02 0.02 0.04 0.06 0.07 0.07
0.00 0.00 0.00 0.01 0.02 0.02 0.02 0.02 0.03 0.03 0.04 0.05 0.05 0.05 0.05 0.06 0.05 0.03 0.03 0.04 0.04 0.04 0.06 0.07 0.08 0.09 0.09 0.08 0.07 0.06 0.06 0.07 0.06 0.07 0.08 0.06 0.04 0.03 0.02 0.02 0.04 0.04 0.04
0.00 0.00 0.00 0.00 0.01 0.01 0.01 0.01 0.01 0.01 0.02 0.03 0.05 0.08 0.08 0.07 0.08 0.06 0.05 0.05 0.05 0.05 0.07 0.09 0.09 0.07 0.07 0.07 0.07 0.05 0.06 0.06 0.05 0.06 0.07 0.06 0.06 0.07 0.04 0.03 0.04 0.03 0.04
0.00 0.00 0.00 0.00 0.01 0.02 0.00 0.00 0.01 0.01 0.02 0.03 0.04 0.09 0.11 0.11 0.10 0.10 0.08 0.07 0.07 0.06 0.07 0.07 0.06 0.04 0.06 0.07 0.06 0.05 0.06 0.07 0.06 0.06 0.09 0.06 0.06 0.07 0.05 0.05 0.04 0.04 0.06
0.00 0.00 0.00 0.00 0.01 0.02 0.01 0.01 0.02 0.04 0.02 0.02 0.04 0.06 0.08 0.10 0.10 0.10 0.09 0.08 0.08 0.08 0.07 0.08 0.05 0.03 0.04 0.05 0.05 0.05 0.05 0.05 0.06 0.06 0.07 0.06 0.07 0.05 0.05 0.05 0.06 0.06 0.06
0.00 0.00 0.00 0.00 0.01 0.01 0.02 0.01 0.00 0.01 0.02 0.02 0.01 0.03 0.05 0.06 0.09 0.08 0.08 0.09 0.09 0.10 0.09 0.08 0.05 0.04 0.05 0.05 0.06 0.07 0.06 0.06 0.06 0.05 0.05 0.05 0.05 0.04 0.05 0.06 0.06 0.06 0.06
0.00 0.00 0.00 0.00 0.01 0.01 0.03 0.02 0.01 0.01 0.01 0.02 0.02 0.02 0.03 0.04 0.07 0.08 0.07 0.06 0.06 0.08 0.10 0.08 0.06 0.05 0.05 0.04 0.08 0.07 0.05 0.06 0.04 0.04 0.04 0.03 0.04 0.04 0.04 0.04 0.05 0.05 0.05
0.00 0.00 0.00 0.00 0.01 0.01 0.03 0.03 0.01 0.01 0.01 0.03 0.04 0.04 0.04 0.05 0.07 0.08 0.07 0.06 0.05 0.06 0.07 0.07 0.07 0.06 0.04 0.04 0.07 0.06 0.04 0.04 0.04 0.04 0.03 0.03 0.03 0.02 0.03 0.04 0.04 0.05 0.04
0.00 0.01 0.00 0.00 0.00 0.01 0.02 0.04 0.02 0.01 0.01 0.02 0.04 0.06 0.06 0.05 0.07 0.06 0.06 0.07 0.07 0.06 0.06 0.06 0.05 0.04 0.04 0.04 0.03 0.03 0.03 0.02 0.02 0.02 0.03 0.02 0.01 0.02 0.02 0.03 0.04 0.04 0.04
0.00 0.01 0.01 0.01 0.01 0.01 0.02 0.03 0.03 0.02 0.01 0.02 0.02 0.04 0.07 0.08 0.08 0.08 0.07 0.07 0.08 0.08 0.07 0.05 0.05 0.04 0.03 0.03 0.02 0.03 0.03 0.02 0.01 0.01 0.02 0.03 0.03 0.03 0.03 0.05 0.06 0.06 0.05
0.00 0.01 0.01 0.01 0.01 0.01 0.02 0.05 0.05 0.04 0.02 0.02 0.02 0.03 0.04 0.07 0.08 0.07 0.08 0.08 0.08 0.08 0.07 0.06 0.05 0.04 0.03 0.02 0.03 0.02 0.02 0.02 0.01 0.01 0.01 0.01 0.02 0.03 0.02 0.05 0.06 0.07 0.06
0.00 0.01 0.01 0.01 0.02 0.02 0.02 0.05 0.06 0.05 0.04 0.03 0.02 0.03 0.03 0.04 0.04 0.05 0.07 0.09 0.09 0.09 0.07 0.06 0.06 0.05 0.04 0.03 0.02 0.03 0.02 0.02 0.01 0.01 0.01 0.01 0.01 0.02 0.03 0.03 0.04 0.04 0.03
0.00 0.00 0.01 0.01 0.02 0.02 0.03 0.04 0.06 0.05 0.03 0.03 0.03 0.02 0.03 0.03 0.04 0.05 0.07 0.09 0.09 0.09 0.07 0.06 0.06 0.05 0.04 0.03 0.02 0.03 0.02 0.02 0.02 0.02 0.01 0.01 0.01 0.01 0.02 0.02 0.02 0.03 0.04
0.00 0.00 0.01 0.01 0.02 0.02 0.03 0.04 0.06 0.05 0.04 0.04 0.03 0.03 0.04 0.04 0.06 0.07 0.08 0.09 0.08 0.08 0.08 0.08 0.08 0.08 0.06 0.05 0.03 0.03 0.03 0.03 0.03 0.03 0.03 0.03 0.03 0.03 0.03 0.02 0.01 0.02 0.03
0.00 0.00 0.01 0.02 0.02 0.02 0.03 0.04 0.05 0.06 0.06 0.06 0.06 0.06 0.06 0.06 0.07 0.08 0.08 0.09 0.09 0.09 0.08 0.07 0.06 0.05 0.05 0.05 0.04 0.03 0.03 0.03 0.03 0.03 0.04 0.03 0.03 0.03 0.02 0.01 0.01 0.02 0.02
0.01 0.01 0.01 0.02 0.04 0.04 0.04 0.05 0.06 0.07 0.07 0.08 0.10 0.11 0.12 0.13 0.13 0.10 0.08 0.07 0.06 0.06 0.06 0.07 0.08 0.07 0.06 0.05 0.04 0.04 0.03 0.03 0.02 0.02 0.02 0.02 0.02 0.02 0.02 0.02 0.02 0.01 0.02
0.01 0.01 0.01 0.02 0.03 0.03 0.04 0.04 0.06 0.08 0.09 0.09 0.09 0.08 0.08 0.08 0.09 0.09 0.08 0.07 0.07 0.09 0.09 0.09 0.09 0.11 0.10 0.06 0.05 0.04 0.03 0.02 0.02 0.02 0.02 0.02 0.02 0.03 0.03 0.02 0.03 0.03 0.03
0.01 0.01 0.01 0.02 0.02 0.02 0.02 0.03 0.05 0.08 0.11 0.12 0.12 0.10 0.09 0.09 0.09 0.08 0.07 0.06 0.05 0.05 0.05 0.07 0.08 0.09 0.08 0.07 0.06 0.05 0.05 0.04 0.02 0.02 0.01 0.01 0.01 0.02 0.02 0.02 0.03 0.04 0.04
MSLP
1006.76 1007.02 1007.27 1007.48 1007.65 1007.78 1007.88 1007.98 1008.09 1008.23 1008.41 1008.62 1008.84 1009.05 1009.21 1009.31 1009.34 1009.31 1009.23 1009.14 1009.05 1008.99 1008.98 1009.02 1009.10 1009.20 1009.33 1009.46 1009.61 1009.77 1009.95 1010.17 1010.41 1010.68 1010.96 1011.23 1011.47 1011.64 1011.76 1011.81 1011.81 1011.80 1011.80
1006.45 1006.77 1007.07 1007.33 1007.53 1007.67 1007.78 1007.90 1008.04 1008.24 1008.48 1008.76 1009.03 1009.27 1009.44 1009.53 1009.53 1009.46 1009.36 1009.26 1009.20 1009.18 1009.23 1009.33 1009.47 1009.61 1009.75 1009.87 1009.97 1010.07 1010.20 1010.35 1010.56 1010.81 1011.09 1011.37 1011.63 1011.82 1011.95 1012.00 1012.00 1011.98 1011.96
1005.90 1006.29 1006.67 1007.00 1007.26 1007.45 1007.61 1007.78 1007.98 1008.24 1008.54 1008.87 1009.18 1009.43 1009.60 1009.66 1009.63 1009.53 1009.41 1009.31 1009.28 1009.32 1009.44 1009.62 1009.82 1010.01 1010.17 1010.28 1010.35 1010.39 1010.45 1010.54 1010.70 1010.92 1011.18 1011.46 1011.73 1011.96 1012.11 1012.18 1012.19 1012.17 1012.15
1005.12 1005.58 1006.05 1006.46 1006.81 1007.08 1007.32 1007.55 1007.83 1008.15 1008.51 1008.89 1009.24 1009.51 1009.67 1009.71 1009.65 1009.53 1009.40 1009.31 1009.30 1009.39 1009.59 1009.84 1010.12 1010.37 1010.56 1010.67 1010.71 1010.72 1010.71 1010.75 1010.85 1011.03 1011.27 1011.55 1011.83 1012.07 1012.24 1012.34 1012.37 1012.37 1012.36
1004.21 1004.73 1005.26 1005.76 1006.18 1006.54 1006.85 1007.16 1007.51 1007.91 1008.34 1008.77 1009.16 1009.45 1009.62 1009.66 1009.59 1009.46 1009.33 1009.26 1009.28 1009.43 1009.68 1010.01 1010.35 1010.66 1010.88 1011.01 1011.04 1011.02 1010.98 1010.98 1011.04 1011.18 1011.40 1011.66 1011.94 1012.18 1012.37 1012.48 1012.52 1012.53 1012.53
1003.34 1003.86 1004.43 1004.97 1005.44 1005.85 1006.23 1006.60 1007.01 1007.47 1007.96 1008.45 1008.88 1009.22 1009.43 1009.49 1009.44 1009.33 1009.22 1009.18 1009.24 1009.43 1009.73 1010.11 1010.50 1010.85 1011.11 1011.26 1011.31 1011.28 1011.23 1011.21 1011.25 1011.37 1011.57 1011.81 1012.08 1012.31 1012.49 1012.59 1012.63 1012.63 1012.63
1002.65 1003.14 1003.68 1004.22 1004.69 1005.11 1005.50 1005.90 1006.34 1006.83 1007.37 1007.91 1008.40 1008.80 1009.06 1009.19 1009.20 1009.14 1009.07 1009.07 1009.17 1009.40 1009.73 1010.14 1010.57 1010.95 1011.24 1011.41 1011.49 1011.48 1011.44 1011.42 1011.46 1011.58 1011.76 1012.00 1012.24 1012.45 1012.60 1012.67 1012.69 1012.66 1012.64
1002.29 1002.70 1003.17 1003.64 1004.06 1004.43 1004.78 1005.15 1005.58 1006.07 1006.62 1007.20 1007.74 1008.20 1008.54 1008.75 1008.84 1008.86 1008.87 1008.92 1009.07 1009.32 1009.68 1010.10 1010.54 1010.93 1011.24 1011.45 1011.55 1011.58 1011.58 1011.59 1011.65 1011.77 1011.96 1012.18 1012.40 1012.58 1012.69 1012.73 1012.70 1012.63 1012.57
1002.31 1002.62 1002.99 1003.34 1003.66 1003.93 1004.18 1004.47 1004.83 1005.28 1005.81 1006.39 1006.97 1007.48 1007.90 1008.20 1008.39 1008.50 1008.59 1008.71 1008.90 1009.18 1009.55 1009.97 1010.41 1010.81 1011.13 1011.36 1011.50 1011.57 1011.61 1011.67 1011.77 1011.92 1012.12 1012.34 1012.54 1012.69 1012.77 1012.76 1012.69 1012.57 1012.46
1002.70 1002.91 1003.16 1003.38 1003.56 1003.69 1003.82 1003.99 1004.24 1004.61 1005.07 1005.61 1006.18 1006.72 1007.19 1007.56 1007.84 1008.04 1008.22 1008.40 1008.64 1008.95 1009.32 1009.74 1010.17 1010.56 1010.89 1011.14 1011.31 1011.44 1011.54 1011.65 1011.80 1011.99 1012.21 1012.43 1012.63 1012.77 1012.82 1012.78 1012.67 1012.52 1012.37
1003.36 1003.49 1003.63 1003.74 1003.79 1003.79 1003.78 1003.81 1003.93 1004.16 1004.52 1004.97 1005.48 1006.00 1006.48 1006.89 1007.22 1007.50 1007.74 1007.99 1008.27 1008.60 1008.98 1009.39 1009.81 1010.20 1010.54 1010.81 1011.02 1011.19 1011.34 1011.51 1011.71 1011.94 1012.19 1012.44 1012.65 1012.78 1012.83 1012.78 1012.66 1012.50 1012.34
1004.14 1004.23 1004.31 1004.34 1004.29 1004.18 1004.05 1003.95 1003.92 1004.02 1004.24 1004.57 1004.97 1005.41 1005.84 1006.24 1006.58 1006.89 1007.17 1007.45 1007.76 1008.11 1008.50 1008.92 1009.34 1009.73 1010.08 1010.37 1010.62 1010.83 1011.04 1011.26 1011.50 1011.78 1012.06 1012.34 1012.57 1012.73 1012.80 1012.78 1012.68 1012.53 1012.37
1004.89 1004.98 1005.06 1005.05 1004.96 1004.79 1004.57 1004.37 1004.23 1004.18 1004.25 1004.43 1004.69 1005.00 1005.33 1005.65 1005.95 1006.24 1006.51 1006.81 1007.13 1007.49 1007.90 1008.32 1008.75 1009.16 1009.53 1009.85 1010.14 1010.40 1010.64 1010.91 1011.19 1011.50 1011.82 1012.13 1012.39 1012.59 1012.71 1012.73 1012.68 1012.58 1012.46
1005.50 1005.65 1005.75 1005.77 1005.68 1005.50 1005.25 1004.99 1004.76 1004.60 1004.52 1004.54 1004.63 1004.79 1004.97 1005.17 1005.37 1005.58 1005.81 1006.08 1006.40 1006.76 1007.17 1007.61 1008.06 1008.49 1008.89 1009.25 1009.58 1009.88 1010.17 1010.47 1010.79 1011.13 1011.47 1011.81 1012.12 1012.36 1012.53 1012.63 1012.65 1012.61 1012.55
1005.95 1006.16 1006.31 1006.38 1006.33 1006.18 1005.95 1005.68 1005.41 1005.16 1004.97 1004.84 1004.76 1004.74 1004.75 1004.79 1004.86 1004.96 1005.11 1005.32 1005.59 1005.94 1006.34 1006.79 1007.26 1007.73 1008.17 1008.58 1008.95 1009.30 1009.63 1009.96 1010.31 1010.67 1011.04 1011.40 1011.74 1012.04 1012.27 1012.43 1012.53 1012.57 1012.58
1006.25 1006.50 1006.70 1006.81 1006.83 1006.73 1006.55 1006.31 1006.02 1005.74 1005.47 1005.22 1005.01 1004.82 1004.65 1004.52 1004.43 1004.40 1004.43 1004.54 1004.75 1005.05 1005.44 1005.89 1006.37 1006.87 1007.36 1007.81 1008.24 1008.64 1009.02 1009.39 1009.77 1010.15 1010.54 1010.93 1011.30 1011.63 1011.91 1012.13 1012.29 1012.41 1012.48
1006.45 1006.70 1006.91 1007.05 1007.11 1007.07 1006.94 1006.75 1006.50 1006.21 1005.91 1005.59 1005.27 1004.95 1004.64 1004.35 1004.09 1003.90 1003.80 1003.80 1003.91 1004.14 1004.48 1004.90 1005.39 1005.91 1006.44 1006.95 1007.44 1007.90 1008.34 1008.76 1009.18 1009.59 1010.01 1010.42 1010.81 1011.16 1011.48 1011.74 1011.95 1012.11 1012.23
1006.62 1006.81 1006.98 1007.10 1007.16 1007.15 1007.08 1006.94 1006.74 1006.49 1006.19 1005.86 1005.48 1005.07 1004.65 1004.22 1003.83 1003.49 1003.24 1003.10 1003.09 1003.22 1003.48 1003.86 1004.33 1004.86 1005.42 1005.98 1006.54 1007.08 1007.59 1008.09 1008.56 1009.03 1009.48 1009.91 1010.31 1010.68 1011.01 1011.28 1011.51 1011.69 1011.83
1006.79 1006.86 1006.93 1006.98 1007.00 1006.99 1006.94 1006.85 1006.71 1006.53 1006.28 1005.96 1005.58 1005.14 1004.64 1004.12 1003.61 1003.13 1002.73 1002.44 1002.30 1002.30 1002.46 1002.77 1003.19 1003.72 1004.30 1004.93 1005.56 1006.19 1006.80 1007.38 1007.94 1008.47 1008.97 1009.43 1009.86 1010.23 1010.55 1010.81 1011.03 1011.20 1011.33
1006.96 1006.88 1006.80 1006.73 1006.68 1006.63 1006.58 1006.53 1006.45 1006.33 1006.15 1005.89 1005.54 1005.10 1004.58 1004.00 1003.39 1002.80 1002.27 1001.83 1001.54 1001.40 1001.44 1001.66 1002.03 1002.53 1003.14 1003.81 1004.53 1005.25 1005.98 1006.68 1007.34 1007.96 1008.52 1009.03 1009.47 1009.84 1010.14 1010.38 1010.56 1010.70 1010.80
1007.09 1006.82 1006.58 1006.39 1006.23 1006.13 1006.07 1006.04 1006.01 1005.96 1005.85 1005.66 1005.36 1004.95 1004.43 1003.82 1003.15 1002.46 1001.81 1001.25 1000.81 1000.55 1000.46 1000.58 1000.88 1001.36 1001.97 1002.70 1003.50 1004.33 1005.17 1006.00 1006.78 1007.49 1008.13 1008.69 1009.15 1009.53 1009.81 1010.02 1010.15 1010.24 1010.29
1007.10 1006.68 1006.29 1005.97 1005.72 1005.55 1005.47 1005.44 1005.45 1005.45 1005.41 1005.28 1005.04 1004.67 1004.17 1003.54 1002.83 1002.09 1001.35 1000.68 1000.13 999.74 999.55 999.58 999.82 1000.27 1000.90 1001.66 1002.54 1003.47 1004.43 1005.37 1006.26 1007.08 1007.80 1008.41 1008.90 1009.28 1009.54 1009.72 1009.81 1009.85 1009.86
1006.96 1006.41 1005.92 1005.50 1005.17 1004.96 1004.85 1004.82 1004.85 1004.88 1004.87 1004.79 1004.59 1004.25 1003.77 1003.15 1002.42 1001.64 1000.85 1000.11 999.48 999.02 998.75 998.72 998.92 999.36 999.99 1000.80 1001.73 1002.75 1003.80 1004.83 1005.81 1006.71 1007.49 1008.14 1008.66 1009.04 1009.30 1009.44 1009.51 1009.51 1009.49
1006.62 1006.01 1005.46 1004.99 1004.63 1004.39 1004.26 1004.22 1004.24 1004.28 1004.28 1004.21 1004.02 1003.70 1003.23 1002.62 1001.90 1001.11 1000.31 999.56 998.91 998.41 998.12 998.07 998.26 998.69 999.33 1000.16 1001.14 1002.20 1003.30 1004.39 1005.42 1006.36 1007.18 1007.85 1008.38 1008.76 1009.01 1009.15 1009.20 1009.20 1009.17
1006.08 1005.48 1004.93 1004.47 1004.11 1003.87 1003.72 1003.67 1003.66 1003.67 1003.64 1003.55 1003.34 1003.01 1002.55 1001.96 1001.26 1000.51 999.75 999.04 998.42 997.97 997.70 997.67 997.88 998.32 998.98 999.82 1000.79 1001.86 1002.96 1004.05 1005.08 1006.01 1006.81 1007.48 1008.00 1008.38 1008.63 1008.77 1008.84 1008.86 1008.85
1005.40 1004.84 1004.35 1003.93 1003.61 1003.38 1003.23 1003.14 1003.09 1003.04 1002.96 1002.81 1002.56 1002.21 1001.74 1001.18 1000.54 999.86 999.19 998.57 998.06 997.70 997.52 997.55 997.81 998.28 998.93 999.76 1000.70 1001.72 1002.77 1003.79 1004.76 1005.63 1006.38 1007.01 1007.50 1007.86 1008.12 1008.29 1008.39 1008.46 1008.51
Thickness
5825 5824 5821 5817 5813 5808 5805 5802 5800 5798 5797 5794 5792 5789 5788 5789 5789 5788 5786 5785 5783 5782 5780 5779 5777 5776 5774 5772 5772 5770 5768 5767 5768 5763 5759 5762 5764 5763 5763 5762 5760 5759 5757
5825 5823 5821 5818 5813 5808 5805 5803 5800 5799 5797 5795 5794 5792 5790 5790 5789 5788 5786 5785 5783 5782 5781 5778 5777 5775 5773 5771 5770 5769 5766 5767 5768 5761 5754 5750 5753 5758 5763 5761 5759 5759 5757
5826 5823 5821 5818 5815 5810 5807 5805 5802 5800 5798 5797 5795 5793 5790 5788 5787 5785 5784 5784 5783 5782 5780 5778 5777 5775 5773 5771 5770 5769 5766 5763 5766 5766 5759 5750 5744 5750 5756 5758 5758 5757 5755
5834 5828 5824 5820 5818 5815 5812 5809 5804 5801 5799 5797 5794 5791 5786 5783 5784 5785 5784 5784 5783 5782 5780 5778 5776 5774 5773 5771 5770 5770 5768 5765 5762 5764 5766 5763 5758 5749 5745 5752 5755 5756 5754
5838 5832 5828 5824 5823 5820 5816 5811 5806 5802 5800 5798 5795 5791 5788 5787 5787 5786 5784 5783 5783 5781 5780 5778 5776 5774 5772 5771 5769 5769 5767 5766 5764 5762 5762 5761 5760 5758 5749 5744 5748 5751 5753
5842 5837 5834 5829 5825 5822 5818 5814 5808 5803 5801 5799 5796 5792 5789 5787 5785 5783 5782 5781 5781 5780 5779 5777 5775 5773 5772 5770 5769 5768 5767 5766 5765 5764 5763 5760 5757 5755 5752 5747 5745 5745 5749
5844 5838 5834 5829 5825 5821 5818 5815 5809 5804 5802 5799 5796 5794 5791 5788 5785 5783 5782 5781 5779 5778 5777 5777 5774 5773 5772 5770 5769 5768 5766 5765 5764 5762 5762 5762 5761 5760 5756 5751 5746 5745 5747
5846 5841 5836 5831 5826 5822 5819 5815 5809 5804 5802 5800 5797 5795 5792 5790 5788 5785 5784 5782 5780 5779 5777 5775 5773 5772 5771 5770 5769 5767 5766 5765 5763 5763 5762 5761 5760 5760 5757 5753 5747 5741 5742
5846 5842 5839 5834 5829 5824 5820 5817 5810 5805 5803 5801 5798 5795 5793 5790 5788 5787 5785 5783 5781 5780 5777 5774 5772 5771 5770 5768 5767 5765 5764 5763 5762 5761 5760 5758 5759 5759 5757 5755 5751 5743 5735
5846 5844 5840 5837 5833 5828 5823 5819 5814 5807 5804 5802 5799 5796 5793 5791 5789 5786 5783 5782 5780 5778 5775 5773 5770 5769 5768 5767 5765 5764 5763 5761 5759 5759 5757 5756 5755 5755 5755 5753 5751 5748 5742
5842 5841 5839 5837 5834 5829 5824 5819 5814 5809 5805 5802 5799 5796 5793 5791 5788 5785 5783 5781 5779 5776 5773 5770 5767 5766 5765 5765 5764 5762 5761 5759 5757 5756 5754 5752 5752 5751 5750 5750 5748 5746 5743
5841 5839 5837 5834 5829 5826 5823 5819 5815 5810 5806 5803 5799 5795 5792 5790 5786 5784 5782 5780 5777 5775 5772 5769 5766 5765 5764 5763 5762 5759 5758 5756 5754 5753 5751 5750 5750 5747 5746 5745 5743 5742 5742
5837 5835 5832 5828 5825 5822 5819 5817 5813 5808 5806 5803 5799 5794 5790 5787 5785 5783 5781 5779 5776 5773 5771 5768 5765 5764 5762 5761 5760 5758 5756 5755 5753 5752 5749 5748 5746 5743 5742 5741 5739 5739 5739
5831 5828 5825 5822 5821 5819 5816 5813 5811 5808 5805 5801 5797 5792 5789 5786 5784 5781 5779 5776 5774 5771 5768 5766 5764 5762 5761 5759 5757 5756 5754 5753 5751 5750 5748 5746 5744 5741 5739 5738 5736 5736 5734
5824 5822 5819 5817 5815 5814 5812 5810 5807 5805 5803 5798 5793 5789 5787 5785 5782 5779 5777 5774 5772 5769 5766 5763 5761 5760 5758 5757 5755 5753 5752 5750 5748 5747 5746 5744 5742 5740 5738 5737 5734 5732 5730
5816 5816 5814 5812 5810 5809 5807 5805 5803 5801 5799 5794 5790 5787 5784 5781 5778 5775 5773 5771 5768 5766 5763 5761 5758 5757 5757 5754 5751 5749 5748 5747 5745 5743 5742 5741 5739 5738 5736 5734 5732 5730 5727
5809 5809 5809 5808 5806 5806 5804 5800 5799 5797 5794 5789 5786 5783 5780 5776 5774 5772 5769 5766 5764 5761 5759 5757 5755 5753 5751 5750 5748 5746 5744 5743 5741 5740 5739 5739 5739 5737 5734 5732 5730 5727 5725
5801 5802 5803 5803 5803 5803 5801 5798 5795 5790 5786 5783 5780 5777 5775 5771 5769 5766 5764 5762 5760 5757 5755 5753 5752 5750 5749 5746 5744 5742 5740 5739 5739 5738 5737 5735 5733 5733 5730 5728 5726 5724 5722
5797 5797 5798 5798 5797 5796 5795 5791 5787 5783 5779 5775 5773 5772 5769 5765 5763 5760 5758 5757 5754 5752 5751 5749 5747 5745 5744 5742 5740 5737 5736 5735 5736 5736 5735 5733 5730 5728 5726 5723 5720 5718 5718
5790 5790 5791 5790 5788 5788 5788 5783 5778 5775 5771 5770 5768 5767 5764 5761 5758 5756 5754 5752 5750 5747 5746 5745 5744 5742 5740 5737 5735 5732 5731 5730 5731 5731 5731 5729 5726 5723 5721 5718 5715 5713 5714
5782 5782 5781 5778 5778 5778 5777 5772 5770 5767 5767 5767 5764 5761 5758 5755 5753 5751 5750 5747 5745 5743 5741 5740 5740 5739 5737 5733 5730 5727 5726 5726 5725 5726 5725 5724 5720 5718 5715 5713 5712 5711 5710
5772 5772 5769 5768 5768 5768 5766 5763 5761 5762 5761 5760 5756 5753 5752 5750 5749 5745 5743 5742 5740 5737 5736 5734 5734 5734 5733 5730 5727 5724 5721 5720 5719 5719 5720 5719 5715 5713 5710 5708 5708 5707 5704
5762 5761 5759 5757 5758 5758 5756 5752 5754 5754 5752 5750 5747 5746 5745 5743 5741 5738 5737 5736 5734 5732 5731 5729 5728 5728 5729 5727 5724 5719 5716 5714 5712 5714 5713 5711 5708 5706 5705 5704 5702 5699 5698
5751 5751 5749 5746 5746 5747 5747 5747 5746 5745 5743 5741 5739 5738 5736 5735 5734 5732 5731 5730 5729 5727 5725 5724 5724 5724 5723 5721 5717 5713 5710 5706 5705 5705 5705 5703 5701 5700 5699 5698 5696 5695 5695
5740 5739 5737 5735 5736 5737 5737 5738 5737 5736 5733 5731 5731 5729 5728 5728 5727 5726 5725 5725 5725 5724 5721 5721 5719 5717 5714 5713 5712 5708 5705 5702 5700 5698 5697 5695 5694 5693 5694 5693 5693 5692 5691
5728 5727 5726 5726 5726 5727 5727 5728 5727 5726 5724 5722 5722 5722 5721 5721 5720 5719 5719 5718 5718 5717 5716 5715 5713 5712 5709 5706 5704 5702 5700 5696 5693 5690 5690 5689 5690 5690 5690 5690 5689 5688 5687